Weather History for KAWO - January, 2014

Change the Weather History Date:

Tuesday, January 28, 2014

  Actual Average Record
Temperature  
Mean Temperature 42 °F -  
Max Temperature 46 °F 41 °F 60 °F (1998)
Min Temperature 37 °F 24 °F 21 °F (1979)
Degree Days  
Heating Degree Days 24    
Moisture  
Dew Point 40 °F    
Average Humidity 91    
Maximum Humidity 93    
Minimum Humidity 81    
Precipitation  
Precipitation 0.01 in - - ()
Sea Level Pressure  
Sea Level Pressure 30.16 in    
Wind  
Wind Speed 1 mph (North)    
Max Wind Speed 7 mph    
Max Gust Speed -    
Visibility 7 miles    
Events      
Averages and records for this station are not official NWS values.
T = Trace of Precipitation, MM = Missing Value Source: NWS Daily Summary

Daily Weather History Graph

Daily Weather History Graph

Search for Another Location

Airport or City:

Trip Planner

Search our weather history database for the weather conditions in past years. The results will help you decide how hot, cold, wet, or windy it might be!

Date:

Astronomy

Jan. 28, 2014 Rise Set
Actual Time 7:41 AM PST 5:02 PM PST
Civil Twilight 7:07 AM PST 5:36 PM PST
Nautical Twilight 6:30 AM PST 6:13 PM PST
Astronomical Twilight 5:53 AM PST 6:50 PM PST
Moon 5:31 AM PST (1/28) 2:55 PM PST (1/28)
Length of Visible Light 10h 28m
Length of Day
9h 20m
Waning Crescent, 6% of the Moon is Illuminated
Jan 28
Waning Crescent
Jan 30
New
Feb 6
First Quarter
Feb 14
Full
Feb 22
Last Quarter

Hourly Weather History & Observations

Time (PST) Temp. Windchill Dew Point Humidity Pressure Visibility Wind Dir Wind Speed Gust Speed Precip Events Conditions
12:15 AM 37.4 °F - 35.6 °F 93% 30.24 in 10.0 mi Calm Calm - N/A   Overcast
12:35 AM 37.4 °F - 35.6 °F 93% 30.25 in 10.0 mi Calm Calm - N/A   Overcast
12:55 AM 37.4 °F - 35.6 °F 93% 30.24 in 10.0 mi Calm Calm - N/A   Overcast
1:15 AM 37.4 °F 33.8 °F 35.6 °F 93% 30.24 in 10.0 mi NE 4.6 mph - N/A   Overcast
1:35 AM 37.4 °F - 35.6 °F 93% 30.24 in 10.0 mi Calm Calm - N/A   Overcast
1:55 AM 39.2 °F 37.0 °F 35.6 °F 87% 30.24 in 10.0 mi NE 3.5 mph - N/A   Overcast
2:15 AM 39.2 °F - 35.6 °F 87% 30.24 in 10.0 mi Calm Calm - N/A   Overcast
2:35 AM 39.2 °F 37.0 °F 35.6 °F 87% 30.23 in 10.0 mi North 3.5 mph - N/A   Overcast
2:55 AM 39.2 °F 35.0 °F 35.6 °F 87% 30.23 in 10.0 mi NW 5.8 mph - N/A   Overcast
3:15 AM 39.2 °F - 35.6 °F 87% 30.22 in 10.0 mi Calm Calm - N/A   Overcast
3:35 AM 39.2 °F - 37.4 °F 93% 30.23 in 10.0 mi Calm Calm - N/A   Overcast
3:55 AM 39.2 °F - 37.4 °F 93% 30.23 in 10.0 mi Calm Calm - N/A   Overcast
4:15 AM 39.2 °F 37.0 °F 37.4 °F 93% 30.23 in 10.0 mi South 3.5 mph - N/A   Overcast
4:35 AM 39.2 °F 35.0 °F 37.4 °F 93% 30.23 in 10.0 mi South 5.8 mph - N/A   Overcast
4:55 AM 39.2 °F - 37.4 °F 93% 30.22 in 10.0 mi Calm Calm - N/A   Overcast
5:15 AM 41.0 °F - 37.4 °F 87% 30.23 in 10.0 mi Calm Calm - N/A   Overcast
5:35 AM 39.2 °F - 37.4 °F 93% 30.23 in 10.0 mi Calm Calm - N/A   Overcast
5:55 AM 39.2 °F 37.0 °F 37.4 °F 93% 30.22 in 10.0 mi North 3.5 mph - N/A   Overcast
6:15 AM 39.2 °F - 37.4 °F 93% 30.22 in 10.0 mi Calm Calm - N/A   Overcast
6:35 AM 39.2 °F 37.0 °F 37.4 °F 93% 30.23 in 10.0 mi North 3.5 mph - N/A   Overcast
6:55 AM 41.0 °F - 37.4 °F 87% 30.23 in 10.0 mi Calm Calm - N/A   Overcast
7:15 AM 41.0 °F - 37.4 °F 87% 30.23 in 10.0 mi Calm Calm - N/A   Overcast
7:35 AM 41.0 °F - 37.4 °F 87% 30.24 in 10.0 mi Calm Calm - N/A   Overcast
7:55 AM 41.0 °F - 37.4 °F 87% 30.24 in 10.0 mi Calm Calm - N/A   Overcast
8:15 AM 41.0 °F - 37.4 °F 87% 30.25 in 10.0 mi Calm Calm - N/A   Overcast
8:35 AM 41.0 °F 39.0 °F 37.4 °F 87% 30.25 in 10.0 mi North 3.5 mph - N/A   Overcast
8:55 AM 42.8 °F 41.1 °F 37.4 °F 81% 30.25 in 10.0 mi ENE 3.5 mph - N/A   Overcast
9:15 AM 42.8 °F 40.1 °F 39.2 °F 87% 30.24 in 10.0 mi East 4.6 mph - N/A   Overcast
9:35 AM 42.8 °F - 39.2 °F 87% 30.24 in 10.0 mi Calm Calm - N/A   Overcast
9:55 AM 42.8 °F - 39.2 °F 87% 30.24 in 10.0 mi Calm Calm - N/A   Overcast
10:15 AM 42.8 °F - 39.2 °F 87% 30.24 in 10.0 mi Calm Calm - N/A   Overcast
10:35 AM 44.6 °F - 39.2 °F 81% 30.24 in 10.0 mi Calm Calm - N/A   Overcast
10:55 AM 42.8 °F - 41.0 °F 93% 30.24 in 10.0 mi Calm Calm - N/A   Overcast
11:15 AM 44.6 °F - 39.2 °F 81% 30.23 in 10.0 mi Calm Calm - N/A   Overcast
11:35 AM 44.6 °F - 42.8 °F 93% 30.22 in 10.0 mi Calm Calm - N/A   Overcast
11:55 AM 44.6 °F - 41.0 °F 87% 30.21 in 10.0 mi Calm Calm - N/A   Overcast
12:15 PM 44.6 °F - 41.0 °F 87% 30.20 in 10.0 mi Calm Calm - N/A   Overcast
12:35 PM 44.6 °F - 41.0 °F 87% 30.20 in 10.0 mi Calm Calm - N/A   Overcast
12:55 PM 44.6 °F - 41.0 °F 87% 30.19 in 7.0 mi Calm Calm - N/A   Overcast
1:15 PM 44.6 °F - 42.8 °F 93% 30.19 in 5.0 mi Calm Calm - N/A   Overcast
1:35 PM 46.4 °F - 42.8 °F 87% 30.18 in 3.0 mi Calm Calm - N/A   Overcast
1:55 PM 46.4 °F - 42.8 °F 87% 30.17 in 3.0 mi Calm Calm - N/A   Overcast
2:15 PM 46.4 °F - 44.6 °F 93% 30.18 in 5.0 mi Calm Calm - N/A   Overcast
2:35 PM 46.4 °F - 44.6 °F 93% 30.18 in 8.0 mi Calm Calm - N/A   Overcast
2:55 PM 46.4 °F 45.2 °F 42.8 °F 87% 30.18 in 8.0 mi North 3.5 mph - N/A   Overcast
3:15 PM 46.4 °F - 44.6 °F 93% 30.17 in 8.0 mi Calm Calm - N/A   Overcast
3:35 PM 46.4 °F - 44.6 °F 93% 30.16 in 6.0 mi Calm Calm - N/A   Overcast
3:55 PM 46.4 °F - 44.6 °F 93% 30.16 in 9.0 mi Calm Calm - N/A   Overcast
4:15 PM 46.4 °F - 44.6 °F 93% 30.16 in 10.0 mi Calm Calm - N/A   Overcast
4:35 PM 46.4 °F - 44.6 °F 93% 30.16 in 2.5 mi Calm Calm - N/A   Overcast
4:55 PM 46.4 °F - 44.6 °F 93% 30.15 in 1.5 mi Calm Calm - N/A   Overcast
5:15 PM 44.6 °F 42.2 °F 42.8 °F 93% 30.14 in 1.5 mi North 4.6 mph - N/A   Overcast
5:35 PM 44.6 °F 43.1 °F 42.8 °F 93% 30.13 in 3.0 mi North 3.5 mph - N/A   Overcast
5:55 PM 44.6 °F - 42.8 °F 93% 30.11 in 3.0 mi Calm Calm - N/A   Overcast
6:15 PM 44.6 °F 43.1 °F 42.8 °F 93% 30.10 in 4.0 mi NW 3.5 mph - N/A   Overcast
6:35 PM 44.6 °F - 42.8 °F 93% 30.08 in 3.0 mi Calm Calm - N/A   Overcast
6:55 PM 44.6 °F - 42.8 °F 93% 30.08 in 2.5 mi Calm Calm - N/A   Overcast
7:15 PM 44.6 °F 43.1 °F 42.8 °F 93% 30.06 in 1.8 mi North 3.5 mph - N/A   Overcast
7:35 PM 44.6 °F 43.1 °F 42.8 °F 93% 30.05 in 0.8 mi North 3.5 mph - N/A   Overcast
7:55 PM 44.6 °F - 42.8 °F 93% 30.04 in 3.0 mi Calm Calm - N/A   Overcast
8:15 PM 44.6 °F - 42.8 °F 93% 30.03 in 4.0 mi Calm Calm - N/A   Mostly Cloudy
8:35 PM 44.6 °F - 42.8 °F 93% 30.02 in 1.0 mi Calm Calm - N/A   Overcast
8:55 PM 44.6 °F 42.2 °F 42.8 °F 93% 30.02 in 2.5 mi NNW 4.6 mph - N/A   Overcast
9:15 PM 44.6 °F 40.7 °F 42.8 °F 93% 30.02 in 3.0 mi NNW 6.9 mph - N/A   Overcast
9:35 PM 44.6 °F 40.7 °F 42.8 °F 93% 30.01 in 3.0 mi NW 6.9 mph - N/A   Overcast
9:55 PM 44.6 °F 42.2 °F 42.8 °F 93% 30.00 in 2.0 mi NW 4.6 mph - N/A   Overcast
10:15 PM 44.6 °F 41.4 °F 42.8 °F 93% 29.99 in 2.5 mi NW 5.8 mph - N/A   Overcast
10:35 PM 44.6 °F 42.2 °F 42.8 °F 93% 29.98 in 2.5 mi WNW 4.6 mph - N/A   Overcast
10:55 PM 44.6 °F - 42.8 °F 93% 29.97 in 1.8 mi Calm Calm - N/A   Overcast
11:15 PM 42.8 °F 41.1 °F 41.0 °F 93% 29.96 in 2.0 mi North 3.5 mph - N/A   Overcast
11:35 PM 42.8 °F 41.1 °F 41.0 °F 93% 29.94 in 3.0 mi NNW 3.5 mph - N/A   Overcast
11:55 PM 42.8 °F - 41.0 °F 93% 29.93 in 3.0 mi Calm Calm - 0.01 in   Overcast